Weather History for PASN - July, 2013

Change the Weather History Date:

Monday, July 15, 2013

  Actual Average Record
Temperature  
Mean Temperature 46 °F 47 °F  
Max Temperature 49 °F 51 °F 62 °F (1960)
Min Temperature 43 °F 44 °F 32 °F (2010)
Degree Days  
Heating Degree Days 19 18  
Month to date heating degree days 310 279  
Since 1 June heating degree days 1020 958  
Since 1 July heating degree days 310 279  
Cooling Degree Days 0    
Month to date cooling degree days 0  
Year to date cooling degree days 0  
Since 1 June cooling degree days 0  
Moisture  
Dew Point 45 °F    
Average Humidity 0    
Maximum Humidity 0    
Minimum Humidity 0    
Precipitation  
Precipitation 0.00 in 0.06 in 0.56 in (1961)
Month to date precipitation 0.78 0.80  
Year to date precipitation 9.51 8.31  
Snow  
Snow 0.00 in 0.00 in 0.00 in (2015)
Month to date snowfall 0.0 0.0  
Since 1 June snowfall 0.0 0.0  
Since 1 July snowfall 0.0 0.0  
Snow Depth 0.00 in    
Sea Level Pressure  
Sea Level Pressure 30.08 in    
Wind  
Wind Speed 8 mph (SW)    
Max Wind Speed 14 mph    
Max Gust Speed 17 mph    
Visibility 1 miles    
Events Fog    
T = Trace of Precipitation, MM = Missing Value Source: NWS Daily Summary

Daily Weather History Graph

Daily Weather History Graph

Search for Another Location

Airport or City:

Trip Planner

Search our weather history database for the weather conditions in past years. The results will help you decide how hot, cold, wet, or windy it might be!

Date:

Astronomy

Jul. 15, 2013 Rise Set
Actual Time 6:48 AM AKDT 12:04 AM AKDT
Civil Twilight 5:48 AM AKDT 1:03 AM AKDT
Nautical Twilight 3:59 AM AKDT 2:54 AM AKDT
Astronomical Twilight Sun does not set Sun does not set
Moon 4:10 PM AKDT (7/15) 1:45 AM AKDT (7/15)
Length of Visible Light 19h 15m
Length of Day
17h 15m
Waxing Crescent, 47% of the Moon is Illuminated
Jul 15
Waxing Crescent
Jul 15
First Quarter
Jul 22
Full
Jul 29
Last Quarter
Aug 6
New

Hourly Weather History & Observations

Time (AKDT) Temp. Windchill Dew Point Humidity Pressure Visibility Wind Dir Wind Speed Gust Speed Precip Events Conditions
12:31 AM 42.8 °F 39.3 °F 42.8 °F 100% 29.98 in 1.0 mi South 5.8 mph - N/A   Mist
12:53 AM 43.0 °F 39.5 °F 43.0 °F 100% 29.99 in 0.8 mi South 5.8 mph - N/A   Mist
1:09 AM 42.8 °F 41.1 °F 42.8 °F 100% 29.98 in 0.5 mi South 3.5 mph - N/A Fog Fog
1:53 AM 43.0 °F 41.3 °F 43.0 °F 100% 30.00 in 0.5 mi South 3.5 mph - N/A Fog Fog
2:53 AM 43.0 °F - 43.0 °F 100% 29.99 in 0.2 mi Calm Calm - N/A Fog Fog
3:53 AM 43.0 °F 40.3 °F 43.0 °F 100% 29.99 in 0.2 mi SW 4.6 mph - N/A Fog Fog
4:53 AM 43.0 °F 40.3 °F 43.0 °F 100% 30.00 in 0.5 mi South 4.6 mph - N/A Fog Fog
5:53 AM 43.0 °F 39.5 °F 43.0 °F 100% 30.01 in 0.5 mi SSW 5.8 mph - N/A Fog Fog
6:53 AM 43.0 °F 39.5 °F 43.0 °F 100% 29.99 in 0.5 mi SSW 5.8 mph - N/A Fog Fog
7:53 AM 44.1 °F 39.0 °F 44.1 °F 100% 30.02 in 0.2 mi West 9.2 mph - N/A Fog Fog
8:10 AM 44.6 °F 40.2 °F 44.6 °F 100% 30.01 in 1.0 mi WSW 8.1 mph - N/A   Mist
8:44 AM 44.6 °F 39.2 °F 44.6 °F 100% 30.02 in 0.8 mi WSW 10.4 mph - N/A   Overcast
8:53 AM 45.0 °F 39.7 °F 45.0 °F 100% 30.03 in 1.2 mi WSW 10.4 mph - N/A   Overcast
9:06 AM 44.6 °F 38.4 °F 44.6 °F 100% 30.03 in 2.0 mi WSW 12.7 mph - N/A   Overcast
9:23 AM 44.6 °F 39.2 °F 44.6 °F 100% 30.04 in 1.8 mi WSW 10.4 mph - N/A   Overcast
9:34 AM 44.6 °F 39.7 °F 44.6 °F 100% 30.04 in 0.5 mi WSW 9.2 mph - N/A Fog Fog
9:53 AM 45.0 °F 39.7 °F 45.0 °F 100% 30.04 in 0.8 mi WSW 10.4 mph - N/A   Mist
9:58 AM 44.6 °F 39.7 °F 44.6 °F 100% 30.04 in 2.0 mi West 9.2 mph - N/A   Overcast
10:06 AM 44.6 °F 40.2 °F 44.6 °F 100% 30.03 in 4.0 mi WSW 8.1 mph - N/A   Overcast
10:14 AM 44.6 °F 40.2 °F 44.6 °F 100% 30.03 in 1.8 mi West 8.1 mph - N/A   Overcast
10:35 AM 44.6 °F 40.2 °F 44.6 °F 100% 30.04 in 0.8 mi WSW 8.1 mph - N/A   Overcast
10:48 AM 44.6 °F 40.7 °F 44.6 °F 100% 30.04 in 1.8 mi WSW 6.9 mph - N/A   Overcast
10:53 AM 45.0 °F 40.1 °F 45.0 °F 100% 30.05 in 1.2 mi WSW 9.2 mph - N/A   Overcast
11:02 AM 44.6 °F 39.7 °F 44.6 °F 100% 30.06 in 0.5 mi West 9.2 mph - N/A Fog Fog
11:38 AM 44.6 °F 39.7 °F 44.6 °F 100% 30.08 in 1.0 mi SW 9.2 mph - N/A   Overcast
11:43 AM 44.6 °F 40.7 °F 44.6 °F 100% 30.07 in 0.5 mi SSW 6.9 mph - N/A Fog Fog
11:53 AM 44.1 °F 38.6 °F 44.1 °F 100% 30.09 in 0.2 mi WSW 10.4 mph - N/A Fog Fog
12:08 PM 44.6 °F 39.7 °F 44.6 °F 100% 30.09 in 0.8 mi SW 9.2 mph - N/A   Mist
12:25 PM 44.6 °F 38.8 °F 44.6 °F 100% 30.09 in 0.5 mi SW 11.5 mph - N/A Fog Fog
12:28 PM 44.6 °F 38.8 °F 44.6 °F 100% 30.09 in 1.0 mi SW 11.5 mph - N/A   Overcast
12:36 PM 46.4 °F 42.4 °F 46.4 °F 100% 30.09 in 3.0 mi SSW 8.1 mph - N/A   Overcast
12:40 PM 44.6 °F 40.2 °F 44.6 °F 100% 30.09 in 1.5 mi SSW 8.1 mph - N/A   Overcast
12:46 PM 44.6 °F 40.7 °F 44.6 °F 100% 30.09 in 0.5 mi SSW 6.9 mph - N/A Fog Fog
12:53 PM 46.0 °F 41.4 °F 46.0 °F 100% 30.09 in 0.8 mi WSW 9.2 mph - N/A   Overcast
12:58 PM 46.4 °F 40.7 °F 46.4 °F 100% 30.09 in 2.5 mi SW 12.7 mph - N/A   Overcast
1:06 PM 46.4 °F 40.7 °F 46.4 °F 100% 30.09 in 4.0 mi SW 12.7 mph - N/A   Overcast
1:12 PM 46.4 °F 41.9 °F 46.4 °F 100% 30.09 in 1.8 mi SW 9.2 mph - N/A   Overcast
1:27 PM 46.4 °F 42.4 °F 46.4 °F 100% 30.08 in 3.0 mi SW 8.1 mph - N/A   Overcast
1:30 PM 46.4 °F 42.4 °F 46.4 °F 100% 30.08 in 1.5 mi SW 8.1 mph - N/A   Overcast
1:53 PM 46.9 °F - 46.9 °F 100% 30.08 in 1.2 mi SW 8.1 mph - N/A   Overcast
1:57 PM 46.4 °F 42.4 °F 46.4 °F 100% 30.08 in 3.0 mi SW 8.1 mph - N/A   Overcast
2:21 PM 46.4 °F 41.5 °F 46.4 °F 100% 30.09 in 1.8 mi SW 10.4 mph - N/A   Overcast
2:53 PM 46.0 °F 40.2 °F 45.0 °F 96% 30.12 in 1.8 mi SSW 12.7 mph - N/A   Overcast
3:00 PM 46.4 °F 41.5 °F 46.4 °F 100% 30.11 in 2.0 mi SSW 10.4 mph - N/A   Overcast
3:20 PM 48.2 °F - 46.4 °F 93% 30.10 in 7.0 mi SW 10.4 mph - N/A   Overcast
3:53 PM 46.9 °F - 45.0 °F 93% 30.10 in 1.5 mi South 11.5 mph - N/A   Overcast
4:21 PM 46.4 °F 41.5 °F 44.6 °F 93% 30.11 in 0.5 mi SSW 10.4 mph - N/A Fog Fog
4:32 PM 46.4 °F 41.1 °F 44.6 °F 93% 30.11 in 1.0 mi SSW 11.5 mph - N/A   Overcast
4:53 PM 46.0 °F 41.0 °F 45.0 °F 96% 30.11 in 1.5 mi SSW 10.4 mph - N/A   Overcast
5:01 PM 46.4 °F 41.5 °F 46.4 °F 100% 30.12 in 3.0 mi SW 10.4 mph - N/A   Overcast
5:26 PM 46.4 °F 41.5 °F 44.6 °F 93% 30.12 in 1.8 mi SSW 10.4 mph - N/A   Overcast
5:53 PM 46.0 °F 41.9 °F 45.0 °F 96% 30.12 in 1.5 mi SSW 8.1 mph - N/A   Overcast
6:16 PM 44.6 °F 39.2 °F 44.6 °F 100% 30.12 in 0.5 mi SSW 10.4 mph - N/A Fog Fog
6:38 PM 46.4 °F 41.9 °F 44.6 °F 93% 30.12 in 0.8 mi SSW 9.2 mph - N/A   Mist
6:53 PM 46.0 °F 41.0 °F 45.0 °F 96% 30.12 in 0.8 mi SSW 10.4 mph - N/A   Mist
7:00 PM 46.4 °F 41.9 °F 44.6 °F 93% 30.11 in 2.0 mi SSW 9.2 mph - N/A   Overcast
7:13 PM 46.4 °F 41.5 °F 44.6 °F 93% 30.11 in 1.0 mi SSW 10.4 mph - N/A   Overcast
7:26 PM 46.4 °F 41.9 °F 44.6 °F 93% 30.12 in 0.8 mi SSW 9.2 mph - N/A   Mist
7:53 PM 45.0 °F 40.6 °F 45.0 °F 100% 30.13 in 0.8 mi SSW 8.1 mph - N/A   Mist
8:26 PM 44.6 °F 39.7 °F 44.6 °F 100% 30.13 in 0.5 mi SSW 9.2 mph - N/A Fog Fog
8:53 PM 44.1 °F 39.5 °F 44.1 °F 100% 30.13 in 0.8 mi SSW 8.1 mph - N/A   Mist
9:31 PM 44.6 °F 42.2 °F 44.6 °F 100% 30.12 in 1.2 mi SSW 4.6 mph - N/A   Overcast
9:53 PM 43.0 °F 40.3 °F 43.0 °F 100% 30.13 in 1.2 mi South 4.6 mph - N/A   Overcast
10:10 PM 42.8 °F 39.3 °F 42.8 °F 100% 30.14 in 0.8 mi SSW 5.8 mph - N/A   Mist
10:20 PM 42.8 °F 39.3 °F 42.8 °F 100% 30.14 in 0.5 mi SSW 5.8 mph - N/A Fog Fog
10:53 PM 43.0 °F 38.2 °F 43.0 °F 100% 30.14 in 0.5 mi South 8.1 mph - N/A Fog Fog
11:32 PM 42.8 °F 39.3 °F 42.8 °F 100% 30.15 in 0.8 mi SSW 5.8 mph - N/A   Mist
11:43 PM 42.8 °F 39.3 °F 42.8 °F 100% 30.15 in 1.0 mi South 5.8 mph - N/A   Mist
11:53 PM 43.0 °F 38.8 °F 43.0 °F 100% 30.16 in 0.8 mi South 6.9 mph - N/A   Mist